owner,sensor,date,latitude,longitude,vertical_datum,direction_of_sea_water_velocity,sea_water_speed,upward_sea_water_velocity,qcFlag 
TABS,ioos:station:wmo:42043:1,2014-01-01T00:00:00Z,28.9818,-94.9186,-2.0,86.0,2.0,-99999.0,'1111122,1111122,1199999999' 
TABS,ioos:station:wmo:42043:1,2014-01-01T00:30:00Z,28.9818,-94.9186,2.0,85.99583642,2.004894012,-99999.0,'11133222,11111222,99999999' 
TABS,ioos:station:wmo:42043:1,2014-01-01T01:00:00Z,28.9818,-94.9186,2.0,194.999775,170.0027179,-99999.0,'11133222,11111222,99999999' 
TABS,ioos:station:wmo:42043:1,2014-01-01T01:30:00Z,28.9818,-94.9186,-2.0,240.0,29.0,-99999.0,'1111122,1111122,1199999999' 
TABS,ioos:station:wmo:42043:1,2014-01-01T02:30:00Z,28.9818,-94.9186,-2.0,86.0,2.0,-99999.0,'1111122,1111122,1199999999' 
TABS,ioos:station:wmo:42043:1,2014-01-01T04:30:00Z,28.9818,-94.9186,2.0,85.99583642,2.004894012,-99999.0,'11133222,11111222,99999999' 
TABS,ioos:station:wmo:42043:1,2014-01-01T16:30:00Z,28.9818,-94.9186,-2.0,86.0,2.0,-99999.0,'1111122,1111122,1199999999' 
TABS,ioos:station:wmo:42043:1,2014-01-01T18:30:00Z,28.9818,-94.9186,-2.0,90.0,0.0,-99999.0,'1114422,1111122,1199999999' 
TABS,ioos:station:wmo:42043:1,2014-01-02T00:30:00Z,28.9818,-94.9186,-2.0,86.0,2.0,-99999.0,'1111122,1111122,1199999999' 
TABS,ioos:station:wmo:42043:1,2014-01-02T16:30:00Z,28.9818,-94.9186,-2.0,354.0,2.0,-99999.0,'1111122,1111122,1199999999' 
TABS,ioos:station:wmo:42043:1,2014-01-03T00:30:00Z,28.9818,-94.9186,-2.0,86.0,2.0,-99999.0,'1111122,1111122,1199999999' 
TABS,ioos:station:wmo:42043:1,2014-01-03T20:30:00Z,28.9818,-94.9186,-2.0,296.0,79.0,-99999.0,'1111122,1111122,1199999999' 
TABS,ioos:station:wmo:42043:1,2014-01-15T03:00:00Z,28.9818,-94.9186,2.0,203.941534,25.30750482,-99999.0,'11111222,11111222,99999999' 
TABS,ioos:station:wmo:42043:1,2014-01-15T03:30:00Z,28.9818,-94.9186,2.0,214.8041368,27.52388236,-99999.0,'11111222,11111222,99999999' 
TABS,ioos:station:wmo:42043:1,2014-01-15T04:00:00Z,28.9818,-94.9186,2.0,212.2111726,27.40854246,-99999.0,'11111222,11111222,99999999' 
TABS,ioos:station:wmo:42043:1,2014-01-15T04:30:00Z,28.9818,-94.9186,2.0,215.8984481,29.14618671,-99999.0,'11111222,11111222,99999999' 
TABS,ioos:station:wmo:42043:1,2014-01-15T05:00:00Z,28.9818,-94.9186,2.0,221.740046,29.84576687,-99999.0,'11111222,11111222,99999999' 
TABS,ioos:station:wmo:42043:1,2014-01-15T05:30:00Z,28.9818,-94.9186,2.0,222.5937194,28.63478304,-99999.0,'11111222,11111222,99999999' 
TABS,ioos:station:wmo:42043:1,2014-01-15T06:00:00Z,28.9818,-94.9186,2.0,232.1434153,29.51037275,-99999.0,'11111222,11111222,99999999' 
TABS,ioos:station:wmo:42043:1,2014-01-15T06:30:00Z,28.9818,-94.9186,2.0,231.0710189,30.95398036,-99999.0,'11111222,11111222,99999999' 
TABS,ioos:station:wmo:42043:1,2014-01-15T07:00:00Z,28.9818,-94.9186,2.0,218.2445089,36.00836708,-99999.0,'11111222,11111222,99999999' 
TABS,ioos:station:wmo:42043:1,2014-01-15T07:30:00Z,28.9818,-94.9186,2.0,216.7031103,45.42619178,-99999.0,'11111222,11111222,99999999' 
TABS,ioos:station:wmo:42043:1,2014-01-15T08:00:00Z,28.9818,-94.9186,2.0,215.1513174,48.82395416,-99999.0,'11111222,11111222,99999999' 
TABS,ioos:station:wmo:42043:1,2014-01-15T08:30:00Z,28.9818,-94.9186,2.0,216.0483063,53.57950448,-99999.0,'11111222,11111222,99999999' 
TABS,ioos:station:wmo:42043:1,2014-01-15T09:00:00Z,28.9818,-94.9186,2.0,215.1092131,55.53421018,-99999.0,'11111222,11111222,99999999' 
TABS,ioos:station:wmo:42043:1,2014-01-15T09:30:00Z,28.9818,-94.9186,2.0,212.8393542,57.36786644,-99999.0,'11111222,11111222,99999999' 
TABS,ioos:station:wmo:42043:1,2014-01-15T10:00:00Z,28.9818,-94.9186,2.0,214.0659685,59.98379865,-99999.0,'11111222,11111222,99999999' 
TABS,ioos:station:wmo:42043:1,2014-01-15T10:30:00Z,28.9818,-94.9186,2.0,215.2921252,62.18956906,-99999.0,'11111222,11111222,99999999' 
TABS,ioos:station:wmo:42043:1,2014-01-15T11:00:00Z,28.9818,-94.9186,2.0,213.8147754,61.0227138,-99999.0,'11111222,11111222,99999999' 
TABS,ioos:station:wmo:42043:1,2014-01-15T11:30:00Z,28.9818,-94.9186,2.0,213.8755661,63.29439865,-99999.0,'11111222,11111222,99999999' 
TABS,ioos:station:wmo:42043:1,2014-01-15T12:00:00Z,28.9818,-94.9186,2.0,216.514008,64.45124126,-99999.0,'11111222,11111222,99999999' 
TABS,ioos:station:wmo:42043:1,2014-01-15T12:30:00Z,28.9818,-94.9186,2.0,219.4954033,61.55463021,-99999.0,'11111222,11111222,99999999' 
TABS,ioos:station:wmo:42043:1,2014-01-15T13:00:00Z,28.9818,-94.9186,2.0,218.3874097,64.78473045,-99999.0,'11111222,11111222,99999999' 
TABS,ioos:station:wmo:42043:1,2014-01-15T13:30:00Z,28.9818,-94.9186,2.0,219.9009273,63.65106283,-99999.0,'11111222,11111222,99999999' 
TABS,ioos:station:wmo:42043:1,2014-01-15T14:00:00Z,28.9818,-94.9186,2.0,218.660936,62.6366107,-99999.0,'11111222,11111222,99999999' 
TABS,ioos:station:wmo:42043:1,2014-01-15T14:30:00Z,28.9818,-94.9186,2.0,221.8829843,56.96392718,-99999.0,'11111222,11111222,99999999' 
TABS,ioos:station:wmo:42043:1,2014-01-15T15:00:00Z,28.9818,-94.9186,2.0,223.1539899,54.66650254,-99999.0,'11111222,11111222,99999999' 
TABS,ioos:station:wmo:42043:1,2014-01-15T15:30:00Z,28.9818,-94.9186,2.0,222.0414497,49.18825571,-99999.0,'11111222,11111222,99999999' 
TABS,ioos:station:wmo:42043:1,2014-01-15T16:00:00Z,28.9818,-94.9186,2.0,224.4152359,45.75218902,-99999.0,'11111222,11111222,99999999' 
TABS,ioos:station:wmo:42043:1,2014-01-15T16:30:00Z,28.9818,-94.9186,2.0,224.6481817,42.64641251,-99999.0,'11111222,11111222,99999999' 
TABS,ioos:station:wmo:42043:1,2014-01-15T17:00:00Z,28.9818,-94.9186,2.0,221.9696954,44.54636349,-99999.0,'11111222,11111222,99999999' 
TABS,ioos:station:wmo:42043:1,2014-01-15T17:30:00Z,28.9818,-94.9186,2.0,223.5294189,42.44037936,-99999.0,'11111222,11111222,99999999' 
TABS,ioos:station:wmo:42043:1,2014-01-15T18:00:00Z,28.9818,-94.9186,2.0,225.0103479,37.99284801,-99999.0,'11111222,11111222,99999999' 
TABS,ioos:station:wmo:42043:1,2014-01-15T18:30:00Z,28.9818,-94.9186,2.0,226.5334519,38.04183224,-99999.0,'11111222,11111222,99999999' 
TABS,ioos:station:wmo:42043:1,2014-01-15T19:00:00Z,28.9818,-94.9186,2.0,228.2236258,39.73157183,-99999.0,'11111222,11111222,99999999' 
TABS,ioos:station:wmo:42043:1,2014-01-15T19:30:00Z,28.9818,-94.9186,2.0,231.1377043,38.95154041,-99999.0,'11111222,11111222,99999999' 
TABS,ioos:station:wmo:42043:1,2014-01-15T20:00:00Z,28.9818,-94.9186,2.0,234.2279995,38.71311147,-99999.0,'11111222,11111222,99999999' 
TABS,ioos:station:wmo:42043:1,2014-01-15T20:30:00Z,28.9818,-94.9186,2.0,233.9016683,33.4030313,-99999.0,'11111222,11111222,99999999' 
TABS,ioos:station:wmo:42043:1,2014-01-15T21:00:00Z,28.9818,-94.9186,2.0,226.5459955,35.63701727,-99999.0,'11111222,11111222,99999999' 
TABS,ioos:station:wmo:42043:1,2014-01-15T21:30:00Z,28.9818,-94.9186,2.0,224.1350309,37.95474279,-99999.0,'11111222,11111222,99999999' 
TABS,ioos:station:wmo:42043:1,2014-01-15T22:00:00Z,28.9818,-94.9186,2.0,223.040506,37.229722,-99999.0,'11111222,11111222,99999999' 
TABS,ioos:station:wmo:42043:1,2014-01-15T22:30:00Z,28.9818,-94.9186,2.0,226.178,37.82406906,-99999.0,'11111222,11111222,99999999' 
TABS,ioos:station:wmo:42043:1,2014-01-15T23:00:00Z,28.9818,-94.9186,2.0,228.1839047,35.77119092,-99999.0,'11111222,11111222,99999999' 
TABS,ioos:station:wmo:42043:1,2014-01-15T23:30:00Z,28.9818,-94.9186,2.0,221.4233583,35.36764623,-99999.0,'11111222,11111222,99999999' 
TABS,ioos:station:wmo:42043:1,2014-01-16T00:00:00Z,28.9818,-94.9186,2.0,229.1897599,38.13011933,-99999.0,'11111222,11111222,99999999' 
TABS,ioos:station:wmo:42043:1,2014-01-16T00:30:00Z,28.9818,-94.9186,2.0,234.4544913,35.55550309,-99999.0,'11111222,11111222,99999999' 
TABS,ioos:station:wmo:42043:1,2014-01-16T01:00:00Z,28.9818,-94.9186,2.0,232.4337272,39.51291561,-99999.0,'11111222,11111222,99999999' 
TABS,ioos:station:wmo:42043:1,2014-01-16T01:30:00Z,28.9818,-94.9186,2.0,232.3124772,37.99786573,-99999.0,'11111222,11111222,99999999' 
TABS,ioos:station:wmo:42043:1,2014-01-16T02:00:00Z,28.9818,-94.9186,2.0,237.3531523,28.32491659,-99999.0,'11111222,11111222,99999999' 
TABS,ioos:station:wmo:42043:1,2014-01-16T02:30:00Z,28.9818,-94.9186,2.0,251.1135359,24.90054618,-99999.0,'11111222,11111222,99999999' 
TABS,ioos:station:wmo:42043:1,2014-01-16T03:00:00Z,28.9818,-94.9186,2.0,249.7206239,22.99534301,-99999.0,'11111222,11111222,99999999' 
TABS,ioos:station:wmo:42043:1,2014-01-16T03:30:00Z,28.9818,-94.9186,2.0,256.4282031,19.73092243,-99999.0,'11111222,11111222,99999999' 
TABS,ioos:station:wmo:42043:1,2014-01-16T04:00:00Z,28.9818,-94.9186,2.0,250.7271809,15.36082355,-99999.0,'11111222,11111222,99999999' 
TABS,ioos:station:wmo:42043:1,2014-01-16T04:30:00Z,28.9818,-94.9186,2.0,240.5210049,15.74886028,-99999.0,'11111222,11111222,99999999' 
TABS,ioos:station:wmo:42043:1,2014-01-16T05:00:00Z,28.9818,-94.9186,2.0,237.7378505,16.57959288,-99999.0,'11111222,11111222,99999999' 
TABS,ioos:station:wmo:42043:1,2014-01-16T05:30:00Z,28.9818,-94.9186,2.0,245.9853716,12.35981391,-99999.0,'11111222,11111222,99999999' 
TABS,ioos:station:wmo:42043:1,2014-01-16T06:00:00Z,28.9818,-94.9186,2.0,231.418456,12.52358575,-99999.0,'11111222,11111222,99999999' 
TABS,ioos:station:wmo:42043:1,2014-01-16T06:30:00Z,28.9818,-94.9186,2.0,226.9477648,10.40048076,-99999.0,'11111222,11111222,99999999' 
TABS,ioos:station:wmo:42043:1,2014-01-16T07:00:00Z,28.9818,-94.9186,2.0,221.1367105,8.816439191,-99999.0,'11133222,11111222,99999999' 
TABS,ioos:station:wmo:42043:1,2014-01-16T07:30:00Z,28.9818,-94.9186,2.0,207.1286322,16.35986553,-99999.0,'11111222,11111222,99999999' 
TABS,ioos:station:wmo:42043:1,2014-01-16T08:00:00Z,28.9818,-94.9186,2.0,209.151678,14.86263772,-99999.0,'11111222,11111222,99999999' 
TABS,ioos:station:wmo:42043:1,2014-01-16T08:30:00Z,28.9818,-94.9186,2.0,206.1418201,15.75129201,-99999.0,'11111222,11111222,99999999' 
TABS,ioos:station:wmo:42043:1,2014-01-16T09:00:00Z,28.9818,-94.9186,2.0,197.1927078,16.34016524,-99999.0,'11111222,11111222,99999999' 
TABS,ioos:station:wmo:42043:1,2014-01-16T09:30:00Z,28.9818,-94.9186,2.0,200.1599461,21.00704644,-99999.0,'11111222,11111222,99999999' 
TABS,ioos:station:wmo:42043:1,2014-01-16T10:00:00Z,28.9818,-94.9186,2.0,208.048732,22.96764899,-99999.0,'11111222,11111222,99999999' 
TABS,ioos:station:wmo:42043:1,2014-01-16T10:30:00Z,28.9818,-94.9186,2.0,193.6389657,26.25026095,-99999.0,'11111222,11111222,99999999' 
TABS,ioos:station:wmo:42043:1,2014-01-16T11:00:00Z,28.9818,-94.9186,2.0,208.5385044,29.34567771,-99999.0,'11111222,11111222,99999999' 
TABS,ioos:station:wmo:42043:1,2014-01-16T11:30:00Z,28.9818,-94.9186,2.0,209.6397215,31.84721181,-99999.0,'11111222,11111222,99999999' 
TABS,ioos:station:wmo:42043:1,2014-01-16T12:00:00Z,28.9818,-94.9186,2.0,208.0442804,36.20059254,-99999.0,'11111222,11111222,99999999' 
TABS,ioos:station:wmo:42043:1,2014-01-16T12:30:00Z,28.9818,-94.9186,2.0,210.3962086,38.28207544,-99999.0,'11111222,11111222,99999999' 
TABS,ioos:station:wmo:42043:1,2014-01-16T13:00:00Z,28.9818,-94.9186,2.0,218.2928247,31.96786199,-99999.0,'11111222,11111222,99999999' 
TABS,ioos:station:wmo:42043:1,2014-01-16T13:30:00Z,28.9818,-94.9186,2.0,215.7779117,32.12183058,-99999.0,'11111222,11111222,99999999' 
TABS,ioos:station:wmo:42043:1,2014-01-16T14:00:00Z,28.9818,-94.9186,2.0,218.6254963,34.20205988,-99999.0,'11111222,11111222,99999999' 
TABS,ioos:station:wmo:42043:1,2014-01-16T14:30:00Z,28.9818,-94.9186,2.0,223.2774184,31.05601713,-99999.0,'11111222,11111222,99999999' 
TABS,ioos:station:wmo:42043:1,2014-01-16T15:00:00Z,28.9818,-94.9186,2.0,226.2020943,29.31603145,-99999.0,'11111222,11111222,99999999' 
TABS,ioos:station:wmo:42043:1,2014-01-16T15:30:00Z,28.9818,-94.9186,2.0,221.4826839,29.39321861,-99999.0,'11111222,11111222,99999999' 
TABS,ioos:station:wmo:42043:1,2014-01-16T16:00:00Z,28.9818,-94.9186,2.0,223.6082807,27.37310359,-99999.0,'11111222,11111222,99999999' 
TABS,ioos:station:wmo:42043:1,2014-01-16T16:30:00Z,28.9818,-94.9186,2.0,223.8124618,25.59568909,-99999.0,'11111222,11111222,99999999' 
TABS,ioos:station:wmo:42043:1,2014-01-16T17:00:00Z,28.9818,-94.9186,2.0,225.3485812,26.7079183,-99999.0,'11111222,11111222,99999999' 
TABS,ioos:station:wmo:42043:1,2014-01-16T17:30:00Z,28.9818,-94.9186,2.0,226.5806236,25.37357878,-99999.0,'11111222,11111222,99999999' 
TABS,ioos:station:wmo:42043:1,2014-01-16T18:00:00Z,28.9818,-94.9186,2.0,228.0319708,26.19963359,-99999.0,'11111222,11111222,99999999' 
TABS,ioos:station:wmo:42043:1,2014-01-16T18:30:00Z,28.9818,-94.9186,2.0,230.9249808,26.09731979,-99999.0,'11111222,11111222,99999999' 
TABS,ioos:station:wmo:42043:1,2014-01-16T19:00:00Z,28.9818,-94.9186,2.0,228.5987182,27.82295635,-99999.0,'11111222,11111222,99999999' 
TABS,ioos:station:wmo:42043:1,2014-01-16T19:30:00Z,28.9818,-94.9186,2.0,227.6562526,29.29155851,-99999.0,'11111222,11111222,99999999' 
TABS,ioos:station:wmo:42043:1,2014-01-16T20:00:00Z,28.9818,-94.9186,2.0,228.67485,32.98365201,-99999.0,'11111222,11111222,99999999' 
TABS,ioos:station:wmo:42043:1,2014-01-16T20:30:00Z,28.9818,-94.9186,2.0,231.5232729,30.24788918,-99999.0,'11111222,11111222,99999999' 
TABS,ioos:station:wmo:42043:1,2014-01-16T21:00:00Z,28.9818,-94.9186,2.0,230.0682551,34.97591886,-99999.0,'11111222,11111222,99999999' 
TABS,ioos:station:wmo:42043:1,2014-01-16T21:30:00Z,28.9818,-94.9186,2.0,230.5257414,35.39254724,-99999.0,'11111222,11111222,99999999' 
TABS,ioos:station:wmo:42043:1,2014-01-16T22:00:00Z,28.9818,-94.9186,2.0,231.7291829,36.08478073,-99999.0,'11111222,11111222,99999999' 
TABS,ioos:station:wmo:42043:1,2014-01-16T22:30:00Z,28.9818,-94.9186,2.0,233.6354793,38.52150049,-99999.0,'11111222,11111222,99999999' 
TABS,ioos:station:wmo:42043:1,2014-01-16T23:00:00Z,28.9818,-94.9186,2.0,231.180521,38.7484219,-99999.0,'11111222,11111222,99999999' 
TABS,ioos:station:wmo:42043:1,2014-01-16T23:30:00Z,28.9818,-94.9186,2.0,235.0638073,40.94932722,-99999.0,'11111222,11111222,99999999' 
TABS,ioos:station:wmo:42043:1,2014-01-17T00:00:00Z,28.9818,-94.9186,2.0,237.6673004,39.56400511,-99999.0,'11111222,11111222,99999999' 
TABS,ioos:station:wmo:42043:1,2014-01-17T00:30:00Z,28.9818,-94.9186,2.0,235.0513611,42.94414978,-99999.0,'11111222,11111222,99999999' 
TABS,ioos:station:wmo:42043:1,2014-01-17T01:00:00Z,28.9818,-94.9186,2.0,238.4863471,41.8407194,-99999.0,'11111222,11111222,99999999' 
TABS,ioos:station:wmo:42043:1,2014-01-17T01:30:00Z,28.9818,-94.9186,2.0,239.9597928,43.60746954,-99999.0,'11111222,11111222,99999999' 
TABS,ioos:station:wmo:42043:1,2014-01-17T02:00:00Z,28.9818,-94.9186,2.0,245.8097945,42.73219512,-99999.0,'11111222,11111222,99999999' 
TABS,ioos:station:wmo:42043:1,2014-01-17T02:30:00Z,28.9818,-94.9186,2.0,248.0667624,42.08610222,-99999.0,'11111222,11111222,99999999' 
TABS,ioos:station:wmo:42043:1,2014-01-17T03:00:00Z,28.9818,-94.9186,2.0,244.3356102,40.38390892,-99999.0,'11111222,11111222,99999999' 
TABS,ioos:station:wmo:42043:1,2014-01-17T03:30:00Z,28.9818,-94.9186,2.0,247.979154,39.33984494,-99999.0,'11111222,11111222,99999999' 
TABS,ioos:station:wmo:42043:1,2014-01-17T04:00:00Z,28.9818,-94.9186,2.0,247.4940099,39.73623284,-99999.0,'11111222,11111222,99999999' 
TABS,ioos:station:wmo:42043:1,2014-01-17T04:30:00Z,28.9818,-94.9186,2.0,248.4029143,39.50322139,-99999.0,'11111222,11111222,99999999' 
TABS,ioos:station:wmo:42043:1,2014-01-17T05:00:00Z,28.9818,-94.9186,2.0,249.1899004,36.47974232,-99999.0,'11111222,11111222,99999999' 
TABS,ioos:station:wmo:42043:1,2014-01-17T05:30:00Z,28.9818,-94.9186,2.0,259.5922819,29.50541137,-99999.0,'11111222,11111222,99999999' 
TABS,ioos:station:wmo:42043:1,2014-01-17T06:00:00Z,28.9818,-94.9186,2.0,253.6930811,31.16361019,-99999.0,'11111222,11111222,99999999' 
TABS,ioos:station:wmo:42043:1,2014-01-17T06:30:00Z,28.9818,-94.9186,2.0,245.2658523,33.86689386,-99999.0,'11111222,11111222,99999999' 
TABS,ioos:station:wmo:42043:1,2014-01-17T07:00:00Z,28.9818,-94.9186,2.0,254.8499804,28.58336929,-99999.0,'11111222,11111222,99999999' 
TABS,ioos:station:wmo:42043:1,2014-01-17T07:30:00Z,28.9818,-94.9186,2.0,252.8736024,27.13309787,-99999.0,'11111222,11111222,99999999' 
TABS,ioos:station:wmo:42043:1,2014-01-17T08:00:00Z,28.9818,-94.9186,2.0,255.6331217,24.82635898,-99999.0,'11111222,11111222,99999999' 
TABS,ioos:station:wmo:42043:1,2014-01-17T08:30:00Z,28.9818,-94.9186,2.0,245.9458615,26.12895138,-99999.0,'11111222,11111222,99999999' 
TABS,ioos:station:wmo:42043:1,2014-01-17T09:00:00Z,28.9818,-94.9186,2.0,238.3297193,31.8651424,-99999.0,'11111222,11111222,99999999' 
TABS,ioos:station:wmo:42043:1,2014-01-17T09:30:00Z,28.9818,-94.9186,2.0,239.3971723,31.82219508,-99999.0,'11111222,11111222,99999999' 
TABS,ioos:station:wmo:42043:1,2014-01-17T10:00:00Z,28.9818,-94.9186,2.0,238.0999359,33.91150985,-99999.0,'11111222,11111222,99999999' 
TABS,ioos:station:wmo:42043:1,2014-01-17T10:30:00Z,28.9818,-94.9186,2.0,239.8652559,38.86222073,-99999.0,'11111222,11111222,99999999' 
TABS,ioos:station:wmo:42043:1,2014-01-17T11:00:00Z,28.9818,-94.9186,2.0,237.6682505,40.23817093,-99999.0,'11111222,11111222,99999999' 
TABS,ioos:station:wmo:42043:1,2014-01-17T11:30:00Z,28.9818,-94.9186,2.0,237.4049832,41.63785897,-99999.0,'11111222,11111222,99999999' 
TABS,ioos:station:wmo:42043:1,2014-01-17T12:00:00Z,28.9818,-94.9186,2.0,236.0977568,42.75935687,-99999.0,'11111222,11111222,99999999' 
TABS,ioos:station:wmo:42043:1,2014-01-17T12:30:00Z,28.9818,-94.9186,2.0,237.402886,47.24132195,-99999.0,'11111222,11111222,99999999' 
TABS,ioos:station:wmo:42043:1,2014-01-17T13:00:00Z,28.9818,-94.9186,2.0,237.7137042,51.95217897,-99999.0,'11111222,11111222,99999999' 
TABS,ioos:station:wmo:42043:1,2014-01-17T13:30:00Z,28.9818,-94.9186,2.0,236.8237235,50.07202912,-99999.0,'11111222,11111222,99999999' 
TABS,ioos:station:wmo:42043:1,2014-01-17T14:00:00Z,28.9818,-94.9186,2.0,234.8683125,54.91327799,-99999.0,'11111222,11111222,99999999' 
TABS,ioos:station:wmo:42043:1,2014-01-17T14:30:00Z,28.9818,-94.9186,2.0,237.3148808,53.90574181,-99999.0,'11111222,11111222,99999999' 
TABS,ioos:station:wmo:42043:1,2014-01-17T15:00:00Z,28.9818,-94.9186,2.0,237.0725183,56.86458476,-99999.0,'11111222,11111222,99999999' 
TABS,ioos:station:wmo:42043:1,2014-01-17T15:30:00Z,28.9818,-94.9186,2.0,240.1285853,55.75746945,-99999.0,'11111222,11111222,99999999' 
TABS,ioos:station:wmo:42043:1,2014-01-17T16:00:00Z,28.9818,-94.9186,2.0,240.2083258,53.55821599,-99999.0,'11111222,11111222,99999999' 
TABS,ioos:station:wmo:42043:1,2014-01-17T16:30:00Z,28.9818,-94.9186,2.0,251.1464644,51.55598607,-99999.0,'11111222,11111222,99999999' 
TABS,ioos:station:wmo:42043:1,2014-01-17T17:00:00Z,28.9818,-94.9186,2.0,247.8606338,53.89343652,-99999.0,'11111222,11111222,99999999' 
TABS,ioos:station:wmo:42043:1,2014-01-17T17:30:00Z,28.9818,-94.9186,2.0,253.6708078,51.11163664,-99999.0,'11111222,11111222,99999999' 
TABS,ioos:station:wmo:42043:1,2014-01-17T18:00:00Z,28.9818,-94.9186,2.0,259.644437,49.90279551,-99999.0,'11111222,11111222,99999999' 
TABS,ioos:station:wmo:42043:1,2014-01-17T18:30:00Z,28.9818,-94.9186,2.0,261.3750743,48.34669068,-99999.0,'11111222,11111222,99999999' 
TABS,ioos:station:wmo:42043:1,2014-01-17T19:00:00Z,28.9818,-94.9186,2.0,267.639928,48.0907777,-99999.0,'11111222,11111222,99999999' 
TABS,ioos:station:wmo:42043:1,2014-01-17T19:30:00Z,28.9818,-94.9186,2.0,270.7847401,46.75438054,-99999.0,'11111222,11111222,99999999' 
TABS,ioos:station:wmo:42043:1,2014-01-17T20:00:00Z,28.9818,-94.9186,2.0,272.7156264,46.65237507,-99999.0,'11111222,11111222,99999999' 
TABS,ioos:station:wmo:42043:1,2014-01-17T20:30:00Z,28.9818,-94.9186,2.0,276.7570698,43.60283133,-99999.0,'11111222,11111222,99999999' 
TABS,ioos:station:wmo:42043:1,2014-01-17T21:00:00Z,28.9818,-94.9186,2.0,280.2051054,46.05859855,-99999.0,'11111222,11111222,99999999' 
TABS,ioos:station:wmo:42043:1,2014-01-17T21:30:00Z,28.9818,-94.9186,2.0,280.7541664,48.28802854,-99999.0,'11111222,11111222,99999999' 
TABS,ioos:station:wmo:42043:1,2014-01-17T22:00:00Z,28.9818,-94.9186,2.0,283.1125405,46.76937673,-99999.0,'11111222,11111222,99999999' 
TABS,ioos:station:wmo:42043:1,2014-01-17T22:30:00Z,28.9818,-94.9186,2.0,286.452894,48.26627187,-99999.0,'11111222,11111222,99999999' 
TABS,ioos:station:wmo:42043:1,2014-01-17T23:00:00Z,28.9818,-94.9186,2.0,289.7777636,46.16295051,-99999.0,'11111222,11111222,99999999' 
TABS,ioos:station:wmo:42043:1,2014-01-17T23:30:00Z,28.9818,-94.9186,2.0,291.1612397,44.01811672,-99999.0,'11111222,11111222,99999999' 
TABS,ioos:station:wmo:42043:1,2014-01-18T00:00:00Z,28.9818,-94.9186,2.0,291.9454351,41.47518415,-99999.0,'11111222,11111222,99999999' 
TABS,ioos:station:wmo:42043:1,2014-01-18T00:30:00Z,28.9818,-94.9186,2.0,295.2194562,39.03015501,-99999.0,'11111222,11111222,99999999' 
TABS,ioos:station:wmo:42043:1,2014-01-18T01:00:00Z,28.9818,-94.9186,2.0,300.5764837,36.25048551,-99999.0,'11111222,11111222,99999999' 
TABS,ioos:station:wmo:42043:1,2014-01-18T01:30:00Z,28.9818,-94.9186,2.0,304.3519825,35.55033193,-99999.0,'11111222,11111222,99999999' 
TABS,ioos:station:wmo:42043:1,2014-01-18T02:00:00Z,28.9818,-94.9186,2.0,306.5651914,32.68246319,-99999.0,'11111222,11111222,99999999' 
TABS,ioos:station:wmo:42043:1,2014-01-18T02:30:00Z,28.9818,-94.9186,2.0,314.0520606,30.76335807,-99999.0,'11111222,11111222,99999999' 
TABS,ioos:station:wmo:42043:1,2014-01-18T03:00:00Z,28.9818,-94.9186,2.0,315.1198198,30.51172398,-99999.0,'11111222,11111222,99999999' 
TABS,ioos:station:wmo:42043:1,2014-01-18T03:30:00Z,28.9818,-94.9186,2.0,324.715059,28.49489779,-99999.0,'11111222,11111222,99999999' 
TABS,ioos:station:wmo:42043:1,2014-01-18T04:00:00Z,28.9818,-94.9186,2.0,335.0000619,24.89224779,-99999.0,'11111222,11111222,99999999' 
TABS,ioos:station:wmo:42043:1,2014-01-18T04:30:00Z,28.9818,-94.9186,2.0,330.4846593,25.10855233,-99999.0,'11111222,11111222,99999999' 
TABS,ioos:station:wmo:42043:1,2014-01-18T05:00:00Z,28.9818,-94.9186,2.0,332.7658264,21.43641061,-99999.0,'11111222,11111222,99999999' 
TABS,ioos:station:wmo:42043:1,2014-01-18T05:30:00Z,28.9818,-94.9186,2.0,341.521601,20.72873609,-99999.0,'11111222,11111222,99999999' 
TABS,ioos:station:wmo:42043:1,2014-01-18T06:00:00Z,28.9818,-94.9186,2.0,342.1897557,18.56999731,-99999.0,'11111222,11111222,99999999' 
TABS,ioos:station:wmo:42043:1,2014-01-18T06:30:00Z,28.9818,-94.9186,2.0,347.0804131,17.80064325,-99999.0,'11111222,11111222,99999999' 
TABS,ioos:station:wmo:42043:1,2014-01-18T07:00:00Z,28.9818,-94.9186,2.0,350.1632336,15.33546543,-99999.0,'11111222,11111222,99999999' 
TABS,ioos:station:wmo:42043:1,2014-01-18T07:30:00Z,28.9818,-94.9186,2.0,355.3695505,12.88204953,-99999.0,'11111222,11111222,99999999' 
TABS,ioos:station:wmo:42043:1,2014-01-18T08:00:00Z,28.9818,-94.9186,2.0,355.9538827,12.47108656,-99999.0,'11111222,11111222,99999999' 
TABS,ioos:station:wmo:42043:1,2014-01-18T08:30:00Z,28.9818,-94.9186,2.0,346.575065,11.37071678,-99999.0,'11111222,11111222,99999999' 
TABS,ioos:station:wmo:42043:1,2014-01-18T09:00:00Z,28.9818,-94.9186,2.0,351.2492311,9.004826484,-99999.0,'11133222,11111222,99999999' 
TABS,ioos:station:wmo:42043:1,2014-01-18T09:30:00Z,28.9818,-94.9186,2.0,332.9560217,8.55549531,-99999.0,'11133222,11111222,99999999' 
TABS,ioos:station:wmo:42043:1,2014-01-18T10:00:00Z,28.9818,-94.9186,2.0,321.7415704,6.023769584,-99999.0,'11133222,11111222,99999999' 
TABS,ioos:station:wmo:42043:1,2014-01-18T10:30:00Z,28.9818,-94.9186,2.0,297.188648,5.7559795,-99999.0,'11133222,11111222,99999999' 
TABS,ioos:station:wmo:42043:1,2014-01-18T11:00:00Z,28.9818,-94.9186,2.0,269.4071785,6.770361881,-99999.0,'11133222,11111222,99999999' 
TABS,ioos:station:wmo:42043:1,2014-01-18T11:30:00Z,28.9818,-94.9186,2.0,257.0896521,9.130805003,-99999.0,'11133222,11111222,99999999' 
TABS,ioos:station:wmo:42043:1,2014-01-18T12:00:00Z,28.9818,-94.9186,2.0,255.0754526,10.17316568,-99999.0,'11111222,11111222,99999999' 
TABS,ioos:station:wmo:42043:1,2014-01-18T12:30:00Z,28.9818,-94.9186,2.0,255.8302074,11.47924214,-99999.0,'11111222,11111222,99999999' 
TABS,ioos:station:wmo:42043:1,2014-01-18T13:00:00Z,28.9818,-94.9186,2.0,261.4776719,12.82155997,-99999.0,'11111222,11111222,99999999' 